Location: Armidale
(30.5016°S, 151.6662°E)
Time: 01:16:24
(UTC+10:00)

Hubble Space Telescope - Pass Details

Date: 12 August 2020
Orbit: 536 x 540 km, 28.5° (Epoch: 28 September)

Event Time Altitude Azimuth Distance (km) Brightness Sun altitude
Rises 17:52:45 0° 270° (W) 2,686 6.3 -6.3°
Reaches altitude 10° 17:55:02 10° 273° (W) 1,794 5.1 -6.7°
Maximum altitude 17:59:08 61° 353° (N) 612 1.2 -7.6°
Drops below altitude 10° 18:03:14 10° 74° (ENE) 1,789 2.9 -8.5°
Enters shadow 18:03:38 - 75° (ENE) 1,946 3.1 -8.6°
